Location: Palomar Mountain Lodge
(33.3110°N, 116.8495°W)
Time: 04:51:02
(UTC-07:00)

Cosmos 1943 Rocket - Pass Details

Date: 12 July 2018
Orbit: 811 x 844 km, 71.0° (Epoch: 22 September)

Event Time Altitude Azimuth Distance (km) Brightness Sun altitude
Rises 20:23:07 0° 189° (S) 3,326 5.1 -5.3°
Reaches altitude 10° 20:25:33 10° 185° (S) 2,401 4.3 -5.7°
Maximum altitude 20:30:57 59° 107° (ESE) 944 2.2 -6.7°
Drops below altitude 10° 20:36:25 10° 29° (NNE) 2,437 4.7 -7.7°
Sets 20:38:54 0° 26° (NNE) 3,379 5.4 -8.1°
